Regional Weather Roundup
Issued by NWS Northern Indiana

Home | Current Version | Previous Version | Text Only | Print | Product List | Glossary Off
Versions: 1 2 3 4 5 6 7 8 9 10 11 12 13 14 15 16 17 18 19 20 21 22 23 24 25 26 27 28 29 30 31 32 33 34 35 36 37 38 39 40 41 42 43 44 45 46 47 48 49 50

000
ASUS43 KIWX 100400
RWRIWX

KIWX WEATHER ROUNDUP
NATIONAL WEATHER SERVICE NORTHERN INDIANA
1100 PM EST FRI DEC 09 2016

NOTE: "FAIR" INDICATES FEW OR NO CLOUDS BELOW 12,000 FEET WITH NO
SIGNIFICANT WEATHER AND/OR OBSTRUCTIONS TO VISIBILITY.

* THESE STATIONS ARE NOT UNDER NWS QUALITY CONTROL. THEY ALSO MAY NOT
  REPORT WEATHER SUCH AS PRECIPITATION OR FOG.

INZ001>027-100500-
NORTHERN INDIANA

CITY           SKY/WX    TMP DP  RH WIND       PRES   REMARKS
GARY*          CLEAR     20  15  81 CALM      30.52S
SOUTH BEND     FLURRIES  20  14  77 SW14      30.47F WCI   7
GOSHEN         FLURRIES  22  13  68 W15       30.47S WCI   9
WARSAW*        PTCLDY    19  10  68 W8        30.48F WCI   9
ANGOLA*        CLOUDY    21  18  86 W10       30.44R WCI  10
FORT WAYNE     CLOUDY    23  14  68 W13       30.49S WCI  11

$$
INZ028>050-100500-
CENTRAL INDIANA

CITY           SKY/WX    TMP DP  RH WIND       PRES   REMARKS
LAFAYETTE      CLOUDY    23  17  78 W5        30.53S WCI  17
KOKOMO*        FLURRIES  23  16  74 NW12      30.51S WCI  12
MUNCIE*        CLOUDY    23  19  85 W5        30.50S WCI  17
INDIANAPOLIS   PTCLDY    20  14  77 W6        30.51S WCI  12

$$
MIZ043>046-050>051-056>058-064>065-071>073-077>080-100500-
SOUTHWEST LOWER MICHIGAN

CITY           SKY/WX    TMP DP  RH WIND       PRES   REMARKS
BATTLE CREEK   LGT SNOW  23  20  88 SW10      30.42R FOG     WCI  12
BENTON HARBOR  CLOUDY    27  11  51 NW7       30.46S WCI  19
COLDWATER*     FLURRIES  23  19  85 SW9       30.44R WCI  13
HILLSDALE*     FLURRIES  21  19  93 SW7       30.40S WCI  13
HOLLAND        FLURRIES  27  14  58 W14G21    30.43S WCI  16
GRAND RAPIDS   CLOUDY    23  19  85 SW5       30.42R WCI  17
KALAMAZOO      LGT SNOW  23  18  81 SW12      30.44R WCI  12
STURGIS*       FLURRIES  21  17  85 W10       30.44S WCI  10
THREE RIVERS*  LGT SNOW  22  18  84 SW7       30.46S WCI  13

$$
OHZ001>008-015>018-024>025-100500-
NORTHWEST OHIO

CITY           SKY/WX    TMP DP  RH WIND       PRES   REMARKS
DEFIANCE       CLOUDY    26  14  60 W8G16     30.48R WCI  18
FINDLAY        CLOUDY    25  16  68 W12       30.46S WCI  14
TOLEDO EXPRESS CLOUDY    25  19  78 W14       30.45R WCI  13
TOLEDO METCALF CLOUDY    27  19  72 W12       30.45S WCI  17
LIMA           CLOUDY    23  16  74 W12       30.47S WCI  12

$$
AND FOR LAKE MICHIGAN COASTAL AND OPEN LAKE BUOY OBSERVATIONS

STATION/POSITION TEMP    WIND        PRES    VSBY  WAVE
                 AIR SEA DIR/SP/G                  HT/PER
                 (F)     (DEG/KT/KT) (MB)    (MI)  (FT/S)
CALUMET HARBOR    20     220/  4/  6 1032.3S
BURNS HARBOR      22     220/  9/ 11 1033.2F
SAINT JOSEPH      29     290/ 11/ 19 1031.8R

$$
&&




USA.gov is the U.S. government's official web portal to all federal, state and local government web resources and services.